• In Germany
  • List of Countries
  • For 7 days
  • Water Temperature
  • Satellite Maps
  • Weather Map
  • Weather Widgets
  • user-avatar
    Login

    Hourly Weather Zawiercie

    Today, 22 October, Sunday

    Time Temperature Precipitation Wind Pressure Humidity
    00:00 +9°C° 0 mm 1 mps 731 mmHg 89%
    01:00 +9°C° 0 mm 1 mps 731 mmHg 89%
    02:00 +9°C° 0 mm 1 mps 731 mmHg 90%
    03:00 +8°C° 0 mm 1 mps 731 mmHg 90%
    04:00 +8°C° 0 mm 1 mps 730 mmHg 91%
    05:00 +7°C° 0 mm 2 mps 730 mmHg 90%
    06:00 +7°C° 0 mm 2 mps 730 mmHg 89%
    07:00 +7°C° 0 mm 2 mps 730 mmHg 88%
    08:00 +8°C° 0.6 mm 2 mps 730 mmHg 84%
    09:00 +9°C° 0.6 mm 2 mps 730 mmHg 80%
    10:00 +10°C° 0.6 mm 3 mps 730 mmHg 76%
    11:00 +10°C° 1.3 mm 2 mps 729 mmHg 79%
    12:00 +10°C° 1.3 mm 2 mps 729 mmHg 83%
    13:00 +9°C° 1.3 mm 2 mps 729 mmHg 86%
    14:00 +9°C° 0.3 mm 2 mps 729 mmHg 87%
    15:00 +9°C° 0.3 mm 2 mps 729 mmHg 88%
    16:00 +9°C° 0.3 mm 3 mps 729 mmHg 89%
    17:00 +9°C° 0.1 mm 3 mps 729 mmHg 90%
    18:00 +9°C° 0.1 mm 3 mps 729 mmHg 91%
    19:00 +8°C° 0.1 mm 3 mps 729 mmHg 92%
    20:00 +8°C° 0.1 mm 2 mps 729 mmHg 93%
    21:00 +8°C° 0.1 mm 2 mps 729 mmHg 93%
    22:00 +8°C° 0.1 mm 2 mps 729 mmHg 93%
    23:00 +8°C° 0.2 mm 2 mps 729 mmHg 93%

    Tomorrow, 23 October, Monday

    Time Temperature Precipitation Wind Pressure Humidity
    00:00 +8°C° 0.2 mm 2 mps 728 mmHg 93%
    01:00 +8°C° 0.2 mm 2 mps 728 mmHg 93%
    02:00 +8°C° 0.2 mm 2 mps 728 mmHg 93%
    03:00 +8°C° 0.2 mm 2 mps 728 mmHg 92%
    04:00 +8°C° 0.2 mm 3 mps 728 mmHg 91%
    05:00 +8°C° 0.2 mm 3 mps 728 mmHg 90%
    06:00 +7°C° 0.2 mm 3 mps 728 mmHg 89%
    07:00 +7°C° 0.2 mm 3 mps 728 mmHg 88%
    08:00 +7°C° 0.2 mm 4 mps 728 mmHg 86%
    09:00 +7°C° 0.2 mm 4 mps 728 mmHg 84%
    10:00 +7°C° 0.2 mm 4 mps 728 mmHg 83%
    11:00 +8°C° 0.3 mm 4 mps 728 mmHg 82%
    12:00 +8°C° 0.3 mm 4 mps 728 mmHg 82%
    13:00 +8°C° 0.3 mm 5 mps 728 mmHg 81%
    14:00 +8°C° 0.6 mm 5 mps 728 mmHg 82%
    15:00 +8°C° 0.6 mm 5 mps 728 mmHg 83%
    16:00 +8°C° 0.6 mm 5 mps 728 mmHg 84%
    17:00 +7°C° 0.8 mm 5 mps 729 mmHg 86%
    18:00 +7°C° 0.8 mm 5 mps 729 mmHg 87%
    19:00 +7°C° 0.8 mm 5 mps 729 mmHg 89%
    20:00 +7°C° 0.7 mm 5 mps 730 mmHg 89%
    21:00 +7°C° 0.7 mm 5 mps 730 mmHg 90%
    22:00 +7°C° 0.7 mm 4 mps 731 mmHg 90%
    23:00 +7°C° 0.3 mm 4 mps 731 mmHg 90%

    Day after tomorrow, 24 October, Tuesday

    Time Temperature Precipitation Wind Pressure Humidity
    00:00 +7°C° 0.3 mm 4 mps 732 mmHg 90%
    01:00 +6°C° 0.3 mm 4 mps 732 mmHg 90%
    02:00 +6°C° 0.1 mm 4 mps 732 mmHg 90%
    03:00 +6°C° 0.1 mm 4 mps 733 mmHg 90%
    04:00 +6°C° 0.1 mm 4 mps 733 mmHg 90%
    05:00 +7°C° 0 mm 3 mps 733 mmHg 90%
    06:00 +7°C° 0 mm 3 mps 734 mmHg 89%
    07:00 +7°C° 0 mm 3 mps 735 mmHg 89%
    08:00 +7°C° 0 mm 3 mps 735 mmHg 87%
    09:00 +7°C° 0 mm 2 mps 736 mmHg 85%
    10:00 +8°C° 0 mm 2 mps 736 mmHg 83%
    11:00 +8°C° 0 mm 2 mps 736 mmHg 80%
    12:00 +9°C° 0 mm 2 mps 736 mmHg 77%
    13:00 +9°C° 0 mm 2 mps 736 mmHg 74%
    14:00 +9°C° 0 mm 2 mps 737 mmHg 75%
    15:00 +9°C° 0 mm 2 mps 737 mmHg 76%
    16:00 +9°C° 0 mm 2 mps 737 mmHg 77%
    17:00 +8°C° 0 mm 2 mps 737 mmHg 78%
    18:00 +9°C° 0 mm 1 mps 738 mmHg 79%
    19:00 +9°C° 0 mm 1 mps 738 mmHg 80%
    20:00 +9°C° 0 mm 1 mps 738 mmHg 81%
    21:00 +8°C° 0 mm 1 mps 738 mmHg 82%
    22:00 +8°C° 0 mm 1 mps 738 mmHg 82%
    23:00 +8°C° 0 mm 1 mps 738 mmHg 83%

    25 October, Wednesday

    Time Temperature Precipitation Wind Pressure Humidity
    00:00 +6°C° 0 mm 0 mps 738 mmHg 85%
    01:00 +6°C° 0 mm 0 mps 738 mmHg 86%
    02:00 +6°C° 0 mm 1 mps 738 mmHg 87%
    03:00 +6°C° 0 mm 1 mps 738 mmHg 88%
    04:00 +6°C° 0 mm 1 mps 738 mmHg 89%
    05:00 +5°C° 0 mm 2 mps 738 mmHg 89%
    06:00 +5°C° 0 mm 2 mps 738 mmHg 89%
    07:00 +5°C° 0 mm 2 mps 737 mmHg 88%
    08:00 +6°C° 0 mm 2 mps 737 mmHg 84%
    09:00 +7°C° 0 mm 3 mps 737 mmHg 80%
    10:00 +8°C° 0 mm 3 mps 738 mmHg 75%
    11:00 +8°C° 0 mm 3 mps 737 mmHg 73%
    12:00 +9°C° 0 mm 3 mps 737 mmHg 71%
    13:00 +10°C° 0 mm 3 mps 737 mmHg 68%
    14:00 +10°C° 0 mm 3 mps 736 mmHg 70%
    15:00 +10°C° 0 mm 3 mps 736 mmHg 72%
    16:00 +10°C° 0 mm 2 mps 736 mmHg 75%
    17:00 +10°C° 0 mm 3 mps 736 mmHg 78%
    18:00 +10°C° 0 mm 3 mps 736 mmHg 81%
    19:00 +10°C° 0 mm 3 mps 736 mmHg 84%
    20:00 +10°C° 0 mm 3 mps 736 mmHg 86%
    21:00 +10°C° 0 mm 4 mps 736 mmHg 87%
    22:00 +10°C° 0 mm 4 mps 736 mmHg 89%
    23:00 +10°C° 0 mm 4 mps 736 mmHg 90%

    26 October, Thursday

    Time Temperature Precipitation Wind Pressure Humidity
    00:00 +10°C° 0 mm 4 mps 736 mmHg 90%
    01:00 +9°C° 0 mm 5 mps 735 mmHg 91%
    02:00 +10°C° 0 mm 5 mps 735 mmHg 91%
    03:00 +10°C° 0 mm 5 mps 735 mmHg 91%
    04:00 +10°C° 0 mm 5 mps 735 mmHg 91%
    05:00 +11°C° 0.1 mm 4 mps 736 mmHg 91%
    06:00 +11°C° 0.1 mm 4 mps 736 mmHg 91%
    07:00 +11°C° 0.1 mm 4 mps 736 mmHg 90%
    08:00 +12°C° 0.1 mm 5 mps 736 mmHg 85%
    09:00 +12°C° 0.1 mm 5 mps 736 mmHg 80%
    10:00 +13°C° 0.1 mm 5 mps 736 mmHg 75%
    11:00 +13°C° 0 mm 5 mps 736 mmHg 72%
    12:00 +13°C° 0 mm 6 mps 736 mmHg 70%
    13:00 +14°C° 0 mm 6 mps 736 mmHg 67%
    14:00 +13°C° 0 mm 5 mps 736 mmHg 69%
    15:00 +12°C° 0 mm 4 mps 735 mmHg 71%
    16:00 +12°C° 0 mm 4 mps 735 mmHg 72%
    17:00 +11°C° 0 mm 3 mps 735 mmHg 75%
    18:00 +11°C° 0 mm 3 mps 735 mmHg 78%
    19:00 +10°C° 0 mm 3 mps 735 mmHg 81%
    20:00 +10°C° 0 mm 3 mps 735 mmHg 82%
    21:00 +10°C° 0 mm 3 mps 735 mmHg 83%
    22:00 +10°C° 0 mm 3 mps 735 mmHg 84%
    23:00 +10°C° 0 mm 3 mps 734 mmHg 86%

    27 October, Friday

    Time Temperature Precipitation Wind Pressure Humidity
    00:00 +10°C° 0 mm 4 mps 734 mmHg 87%
    01:00 +10°C° 0 mm 4 mps 734 mmHg 88%
    02:00 +8°C° 0 mm 4 mps 733 mmHg 89%
    03:00 +8°C° 0 mm 4 mps 733 mmHg 90%
    04:00 +8°C° 0 mm 4 mps 732 mmHg 90%
    05:00 +8°C° 0 mm 4 mps 732 mmHg 90%
    06:00 +8°C° 0 mm 4 mps 732 mmHg 89%
    07:00 +8°C° 0 mm 4 mps 731 mmHg 89%
    08:00 +9°C° 0 mm 5 mps 731 mmHg 84%
    09:00 +10°C° 0 mm 5 mps 731 mmHg 79%
    10:00 +10°C° 0 mm 5 mps 730 mmHg 75%
    11:00 +11°C° 0 mm 6 mps 730 mmHg 73%
    12:00 +11°C° 0 mm 6 mps 729 mmHg 71%
    13:00 +13°C° 0 mm 6 mps 728 mmHg 69%
    14:00 +13°C° 0 mm 5 mps 727 mmHg 71%
    15:00 +12°C° 0 mm 5 mps 726 mmHg 73%
    16:00 +12°C° 0 mm 5 mps 725 mmHg 75%
    17:00 +11°C° 0.4 mm 6 mps 724 mmHg 76%
    18:00 +11°C° 0.4 mm 7 mps 723 mmHg 78%
    19:00 +11°C° 0.4 mm 7 mps 722 mmHg 80%
    20:00 +10°C° 1.2 mm 7 mps 721 mmHg 82%
    21:00 +10°C° 1.2 mm 7 mps 720 mmHg 84%
    22:00 +10°C° 1.2 mm 8 mps 720 mmHg 85%
    23:00 +9°C° 0.8 mm 8 mps 721 mmHg 84%
    Show more